Location: Ostrava
(49.8330°N, 18.2830°E)
Time: 06:34:30
(UTC+01:00)

Transit 2A - All Passes

Search period start: 22 December 2014 00:00
Search period end: 01 January 2015 00:00
Orbit: 594 x 967 km, 66.7° (Epoch: 21 December)

Date Brightness Start Highest point End Pass type
(mag) Time Alt. Az. Time Alt. Az. Time Alt. Az.
22 Dec - 11:57:24 10° S 12:01:37 30° ESE 12:06:14 10° NE daylight
22 Dec - 13:39:39 10° WSW 13:44:33 53° NW 13:50:02 10° NNE daylight
22 Dec - 15:25:21 10° WNW 15:29:09 19° NNW 15:33:14 10° NNE daylight
22 Dec - 17:11:32 10° NNW 17:14:44 15° N 17:18:04 10° NE visible
22 Dec - 18:55:14 10° NNW 19:00:06 26° NNE 19:05:13 10° E visible
22 Dec - 20:38:14 10° NW 20:44:19 76° NE 20:50:42 10° SE visible
22 Dec - 22:22:11 10° NW 22:27:10 26° WSW 22:32:17 10° SSW night (unlit)
23 Dec - 11:24:31 10° SSE 11:28:11 21° ESE 11:32:09 10° ENE daylight
23 Dec - 13:05:50 10° SW 13:10:47 70° NW 13:16:23 10° NE daylight
23 Dec - 14:51:02 10° WNW 14:55:07 22° NNW 14:59:33 10° NNE daylight
23 Dec - 16:37:29 10° NNW 16:40:36 15° N 16:43:51 10° NNE visible
23 Dec - 18:21:35 10° NNW 18:26:06 22° NNE 18:30:51 10° ENE visible
23 Dec - 20:04:35 10° NNW 20:10:34 60° NE 20:16:51 10° SE visible
23 Dec - 21:48:11 10° NW 21:53:41 35° WSW 21:59:20 10° S visible
24 Dec - 10:52:02 10° SE 10:54:49 15° ESE 10:57:46 10° ENE daylight
24 Dec - 12:32:08 10° SSW 12:37:06 88° SE 12:42:41 10° NE daylight
24 Dec - 14:16:46 10° W 14:21:08 26° NNW 14:25:53 10° NNE daylight
24 Dec - 16:03:18 10° NW 16:06:28 15° N 16:09:46 10° NNE daylight
24 Dec - 17:47:53 10° NNW 17:52:04 20° NNE 17:56:26 10° ENE visible
24 Dec - 19:30:56 10° NNW 19:36:46 48° NE 19:42:54 10° ESE visible
24 Dec - 21:14:19 10° NW 21:20:09 46° WSW 21:26:10 10° S visible
25 Dec - 10:20:57 10° ESE 10:21:30 10° E 10:22:04 10° E daylight
25 Dec - 11:58:35 10° SSW 12:03:27 65° ESE 12:08:56 10° NE daylight
25 Dec - 13:42:35 10° W 13:47:11 31° NW 13:52:15 10° NNE daylight
25 Dec - 15:29:01 10° NW 15:32:20 16° N 15:35:49 10° NNE daylight
25 Dec - 17:14:08 10° NNW 17:17:59 18° NNE 17:21:59 10° ENE visible
25 Dec - 18:57:18 10° NNW 19:02:55 39° NE 19:08:49 10° ESE visible
25 Dec - 20:40:31 10° NW 20:46:33 61° WSW 20:52:49 10° SSE visible
25 Dec - 22:26:18 10° WNW 22:28:46 13° W 22:31:16 10° SW night (unlit)
26 Dec - 11:25:11 10° S 11:29:53 47° ESE 11:35:08 10° NE daylight
26 Dec - 13:08:30 10° WSW 13:13:17 39° NW 13:18:36 10° NNE daylight
26 Dec - 14:54:41 10° NW 14:58:13 17° NNW 15:01:58 10° NNE daylight
26 Dec - 16:40:19 10° NNW 16:43:52 16° NNE 16:47:34 10° NE visible
26 Dec - 18:23:40 10° NNW 18:29:01 32° NE 18:34:38 10° E visible
26 Dec - 20:06:46 10° NW 20:12:55 79° WSW 20:19:17 10° SSE visible
26 Dec - 21:51:28 10° WNW 21:55:24 18° WSW 21:59:24 10° SW visible
27 Dec - 10:51:57 10° S 10:56:22 34° ESE 11:01:15 10° NE daylight
27 Dec - 12:34:30 10° WSW 12:39:26 49° NW 12:44:57 10° NNE daylight
27 Dec - 14:20:20 10° WNW 14:24:08 19° NNW 14:28:11 10° NNE daylight
27 Dec - 16:06:24 10° NNW 16:09:45 15° N 16:13:13 10° NE daylight
27 Dec - 17:50:02 10° NNW 17:55:04 27° NNE 18:00:21 10° E visible
27 Dec - 19:33:04 10° NW 19:39:13 82° NE 19:45:37 10° SE visible
27 Dec - 21:17:10 10° WNW 21:21:59 24° WSW 21:26:53 10° SSW visible
28 Dec - 10:18:58 10° SSE 10:22:55 24° ESE 10:27:13 10° NE daylight
28 Dec - 12:00:38 10° SW 12:05:38 64° NW 12:11:16 10° NNE daylight
28 Dec - 13:45:59 10° WNW 13:50:05 21° NNW 13:54:28 10° NNE daylight
28 Dec - 15:32:22 10° NNW 15:35:36 15° N 15:38:57 10° NE daylight
28 Dec - 17:16:22 10° NNW 17:21:04 23° NNE 17:26:00 10° E visible
28 Dec - 18:59:24 10° NNW 19:05:28 65° NE 19:11:49 10° SE visible
28 Dec - 20:43:07 10° NW 20:48:30 32° WSW 20:54:00 10° S visible
29 Dec - 09:46:17 10° SE 09:49:31 17° ESE 09:52:57 10° ENE daylight
29 Dec - 11:26:53 10° SW 11:31:54 85° NW 11:37:35 10° NE daylight
29 Dec - 13:11:42 10° W 13:16:03 25° NNW 13:20:47 10° NNE daylight
29 Dec - 14:58:13 10° NW 15:01:27 15° N 15:04:49 10° NNE daylight
29 Dec - 16:42:41 10° NNW 16:47:02 21° NNE 16:51:35 10° ENE visible
29 Dec - 18:25:44 10° NNW 18:31:41 52° NE 18:37:53 10° ESE visible
29 Dec - 20:09:11 10° NW 20:14:58 42° WSW 20:20:54 10° S visible
30 Dec - 09:14:17 10° ESE 09:16:10 12° E 09:18:07 10° E daylight
30 Dec - 10:53:16 10° SSW 10:58:14 72° ESE 11:03:50 10° NE daylight
30 Dec - 12:37:29 10° W 12:42:05 30° NNW 12:47:07 10° NNE daylight
30 Dec - 14:23:57 10° NW 14:27:18 16° N 14:30:48 10° NNE daylight
30 Dec - 16:08:56 10° NNW 16:12:57 18° NNE 16:17:08 10° ENE daylight
30 Dec - 17:52:05 10° NNW 17:57:50 42° NE 18:03:50 10° ESE visible
30 Dec - 19:35:21 10° NW 19:41:23 56° WSW 19:47:35 10° SSE visible
30 Dec - 21:21:51 10° W 21:23:30 11° W 21:25:09 10° WSW visible
31 Dec - 10:19:48 10° SSW 10:24:38 53° ESE 10:30:03 10° NE daylight
31 Dec - 12:03:21 10° WSW 12:08:09 36° NW 12:13:27 10° NNE daylight
31 Dec - 13:49:37 10° NW 13:53:10 17° NNW 13:56:54 10° NNE daylight
31 Dec - 15:35:07 10° NNW 15:38:50 17° NNE 15:42:42 10° NE daylight
31 Dec - 17:18:26 10° NNW 17:23:56 34° NE 17:29:40 10° ESE visible
31 Dec - 19:01:35 10° NW 19:07:45 73° WSW 19:14:06 10° SSE visible
31 Dec - 20:46:33 10° WNW 20:50:08 16° WSW 20:53:45 10° SW visible
